| time (UTC) | temp C | wind direction | speed KPH | gust KPH | rain 1hr cm | rain 24hr cm | rain mn cm | humidity % | barometer mb |
| 20260509104534 | 16 | 296 | 4.8 | 14.5 | 0.23 | 0.79 | 0.79 | 66 | 1012.4 |
| 20260509103032 | 16 | 240 | 6.4 | 20.9 | 0.30 | 0.79 | 0.79 | 66 | 1012.6 |
| 20260509101538 | 16 | 265 | 11.3 | 19.3 | 0.33 | 0.76 | 0.76 | 64 | 1011.7 |
| 20260509100038 | 16 | 242 | 12.9 | 20.9 | 0.25 | 0.66 | 0.66 | 63 | 1013.0 |
| 20260509094543 | 16 | 291 | 6.4 | 22.5 | 0.15 | 0.61 | 0.56 | 63 | 1012.8 |
| 20260509093034 | 16 | 263 | 12.9 | 25.7 | 0.10 | 0.53 | 0.46 | 63 | 1012.7 |
| 20260509091531 | 16 | 246 | 12.9 | 27.4 | 0.10 | 0.48 | 0.43 | 64 | 1012.1 |
| 20260509090054 | 15 | 273 | 11.3 | 16.1 | 0.08 | 0.46 | 0.41 | 66 | 1011.7 |
| 20260509084543 | 15 | 290 | 11.3 | 22.5 | 0.15 | 0.46 | 0.38 | 66 | 1011.0 |
| 20260509083046 | 15 | 271 | 14.5 | 19.3 | 0.10 | 0.41 | 0.36 | 66 | 1010.6 |
| 20260509081536 | 15 | 236 | 11.3 | 19.3 | 0.13 | 0.36 | 0.30 | 67 | 1011.3 |
| 20260509080049 | 15 | 232 | 14.5 | 22.5 | 0.18 | 0.36 | 0.30 | 67 | 1010.7 |
| 20260509074538 | 15 | 308 | 6.4 | 12.9 | 0.13 | 0.28 | 0.23 | 67 | 1010.5 |
| 20260509073036 | 15 | 294 | 8.0 | 14.5 | 0.15 | 0.28 | 0.23 | 66 | 1010.8 |
| 20260509071535 | 15 | 307 | 4.8 | 9.7 | 0.13 | 0.23 | 0.18 | 64 | 1010.2 |
| 20260509070039 | 16 | 242 | 4.8 | 9.7 | 0.13 | 0.18 | 0.13 | 63 | 1010.9 |
| 20260509064538 | 16 | 94 | 1.6 | 6.4 | 0.08 | 0.15 | 0.08 | 62 | 1010.7 |
| 20260509063031 | 16 | 0 | 0.0 | 4.8 | 0.08 | 0.13 | 0.08 | 60 | 1011.0 |
| 20260509061536 | 17 | 84 | 1.6 | 11.3 | 0.03 | 0.08 | 0.03 | 58 | 1010.6 |
| 20260509060036 | 17 | 210 | 3.2 | 14.5 | 0.00 | 0.05 | 0.00 | 56 | 1011.1 |
| 20260509054539 | 16 | 232 | 1.6 | 12.9 | 0.00 | 0.05 | 0.00 | 58 | 1011.1 |
| 20260509053044 | 16 | 288 | 4.8 | 8.0 | 0.00 | 0.05 | 0.00 | 58 | 1009.8 |
| 20260509051533 | 16 | 290 | 4.8 | 17.7 | 0.00 | 0.05 | 0.00 | 58 | 1010.0 |
| 20260509050051 | 16 | 284 | 8.0 | 16.1 | 0.00 | 0.05 | 0.00 | 58 | 1010.2 |
| 20260509044535 | 16 | 274 | 9.7 | 14.5 | 0.00 | 0.05 | 0.00 | 60 | 1010.4 |
| 20260509043042 | 16 | 289 | 9.7 | 16.1 | 0.00 | 0.05 | 0.00 | 62 | 1010.6 |
| 20260509041536 | 16 | 293 | 3.2 | 8.0 | 0.00 | 0.05 | 0.00 | 63 | 1010.6 |
| 20260509040039 | 16 | 265 | 4.8 | 11.3 | 0.00 | 0.05 | 0.00 | 63 | 1010.4 |
| 20260509034533 | 16 | 281 | 4.8 | 12.9 | 0.00 | 0.05 | 0.00 | 63 | 1010.4 |
| 20260509033039 | 16 | 281 | 3.2 | 6.4 | 0.00 | 0.05 | 0.00 | 63 | 1010.6 |
| 20260509031536 | 16 | 281 | 3.2 | 6.4 | 0.00 | 0.05 | 0.00 | 63 | 1010.8 |
| 20260509030034 | 16 | 267 | 4.8 | 11.3 | 0.00 | 0.05 | 0.00 | 63 | 1010.9 |
| 20260509024539 | 16 | 248 | 3.2 | 9.7 | 0.00 | 0.05 | 0.00 | 62 | 1010.8 |
| 20260509023036 | 16 | 0 | 0.0 | 0.0 | 0.00 | 0.05 | 0.00 | 61 | 1010.9 |
| 20260509021532 | 16 | 0 | 0.0 | 0.0 | 0.00 | 0.05 | 0.00 | 61 | 1011.1 |
| 20260509020038 | 16 | 0 | 0.0 | 0.0 | 0.00 | 0.05 | 0.00 | 62 | 1011.3 |
| 20260509014536 | 16 | 106 | 0.0 | 4.8 | 0.00 | 0.05 | 0.00 | 62 | 1011.5 |
| 20260509013038 | 16 | 0 | 0.0 | 0.0 | 0.00 | 0.05 | 0.00 | 63 | 1011.7 |
| 20260509011538 | 16 | 0 | 0.0 | 0.0 | 0.00 | 0.05 | 0.00 | 63 | 1011.8 |
| 20260509010037 | 16 | 0 | 0.0 | 0.0 | 0.00 | 0.05 | 0.00 | 62 | 1011.9 |
| 20260509004536 | 16 | 0 | 0.0 | 0.0 | 0.00 | 0.05 | 0.00 | 62 | 1012.1 |
| 20260509003036 | 16 | 0 | 0.0 | 0.0 | 0.00 | 0.05 | 0.00 | 61 | 1012.4 |
| 20260509001537 | 16 | 0 | 0.0 | 0.0 | 0.00 | 0.05 | 0.00 | 61 | 1012.7 |
| 20260509000043 | 16 | 0 | 0.0 | 0.0 | 0.00 | 0.05 | 0.00 | 60 | 1012.9 |
| 20260508234537 | 16 | 0 | 0.0 | 0.0 | 0.00 | 0.05 | 0.00 | 61 | 1013.0 |
| 20260508233036 | 16 | 0 | 0.0 | 0.0 | 0.00 | 0.05 | 0.00 | 61 | 1013.1 |
| 20260508231545 | 16 | 0 | 0.0 | 0.0 | 0.00 | 0.05 | 0.00 | 61 | 1013.2 |
| 20260508230037 | 16 | 0 | 0.0 | 0.0 | 0.00 | 0.05 | 0.00 | 61 | 1013.4 |
| 20260508224559 | 17 | 0 | 0.0 | 0.0 | 0.00 | 0.05 | 0.00 | 61 | 1013.6 |
| 20260508223038 | 17 | 132 | 1.6 | 4.8 | 0.00 | 0.05 | 0.00 | 61 | 1013.8 |
| 20260508221545 | 17 | 0 | 0.0 | 0.0 | 0.00 | 0.05 | 0.00 | 60 | 1013.9 |
| 20260508220036 | 17 | 0 | 0.0 | 0.0 | 0.00 | 0.05 | 0.00 | 60 | 1013.8 |
| 20260508214541 | 17 | 0 | 0.0 | 1.6 | 0.00 | 0.05 | 0.05 | 60 | 1013.8 |
| 20260508213039 | 17 | 131 | 3.2 | 8.0 | 0.00 | 0.05 | 0.05 | 59 | 1013.8 |
| 20260508211537 | 17 | 121 | 1.6 | 6.4 | 0.00 | 0.05 | 0.05 | 60 | 1013.8 |
| 20260508210037 | 17 | 0 | 0.0 | 0.0 | 0.00 | 0.05 | 0.05 | 60 | 1013.4 |
| 20260508204540 | 17 | 0 | 0.0 | 0.0 | 0.00 | 0.05 | 0.05 | 60 | 1013.5 |
| 20260508203039 | 17 | 0 | 0.0 | 0.0 | 0.00 | 0.05 | 0.05 | 59 | 1013.5 |
| 20260508201541 | 17 | 0 | 0.0 | 4.8 | 0.00 | 0.05 | 0.05 | 59 | 1013.4 |
| 20260508200046 | 17 | 0 | 1.6 | 6.4 | 0.00 | 0.05 | 0.05 | 58 | 1013.5 |
| 20260508194536 | 17 | 108 | 1.6 | 4.8 | 0.00 | 0.05 | 0.05 | 58 | 1013.3 |
| 20260508193049 | 17 | 120 | 3.2 | 9.7 | 0.00 | 0.05 | 0.05 | 57 | 1013.3 |
| 20260508191539 | 18 | 89 | 1.6 | 11.3 | 0.00 | 0.05 | 0.05 | 56 | 1013.3 |
| 20260508190038 | 18 | 91 | 3.2 | 9.7 | 0.00 | 0.05 | 0.05 | 54 | 1013.1 |
| 20260508184538 | 18 | 128 | 3.2 | 16.1 | 0.00 | 0.05 | 0.05 | 52 | 1013.1 |
| 20260508183048 | 18 | 132 | 9.7 | 17.7 | 0.00 | 0.05 | 0.05 | 51 | 1013.1 |
| 20260508181550 | 18 | 140 | 11.3 | 17.7 | 0.00 | 0.05 | 0.05 | 49 | 1012.9 |
| 20260508180040 | 19 | 128 | 8.0 | 17.7 | 0.00 | 0.05 | 0.05 | 49 | 1012.8 |
| 20260508174538 | 19 | 146 | 8.0 | 19.3 | 0.00 | 0.41 | 0.05 | 47 | 1012.8 |
| 20260508173039 | 20 | 126 | 8.0 | 20.9 | 0.00 | 0.41 | 0.05 | 47 | 1012.4 |
| 20260508171542 | 20 | 92 | 8.0 | 19.3 | 0.00 | 0.41 | 0.05 | 46 | 1012.5 |
| 20260508170036 | 21 | 123 | 11.3 | 22.5 | 0.00 | 0.41 | 0.05 | 44 | 1012.5 |
| 20260508164534 | 21 | 119 | 12.9 | 24.1 | 0.00 | 0.46 | 0.05 | 42 | 1012.4 |
| 20260508163042 | 22 | 73 | 11.3 | 20.9 | 0.00 | 0.46 | 0.05 | 39 | 1012.4 |
| 20260508161539 | 22 | 94 | 6.4 | 17.7 | 0.00 | 0.46 | 0.05 | 37 | 1012.3 |
| 20260508160040 | 22 | 82 | 8.0 | 19.3 | 0.00 | 0.46 | 0.05 | 36 | 1012.2 |
| 20260508154539 | 22 | 103 | 11.3 | 19.3 | 0.00 | 0.48 | 0.05 | 36 | 1012.2 |
| 20260508153037 | 22 | 113 | 6.4 | 19.3 | 0.00 | 0.48 | 0.05 | 38 | 1012.2 |
| 20260508151544 | 22 | 110 | 11.3 | 22.5 | 0.00 | 0.48 | 0.05 | 39 | 1012.2 |
| 20260508150046 | 22 | 103 | 6.4 | 17.7 | 0.00 | 0.48 | 0.05 | 38 | 1012.4 |
| 20260508144544 | 22 | 198 | 8.0 | 17.7 | 0.00 | 0.48 | 0.05 | 40 | 1012.4 |
| 20260508143041 | 21 | 183 | 6.4 | 19.3 | 0.00 | 0.48 | 0.05 | 41 | 1012.3 |
| 20260508141538 | 21 | 171 | 8.0 | 16.1 | 0.00 | 0.48 | 0.05 | 43 | 1012.5 |
| 20260508140044 | 22 | 136 | 6.4 | 14.5 | 0.00 | 0.48 | 0.05 | 41 | 1012.6 |
| 20260508134537 | 21 | 62 | 4.8 | 14.5 | 0.00 | 0.48 | 0.05 | 40 | 1012.7 |
| 20260508133042 | 21 | 180 | 4.8 | 12.9 | 0.00 | 0.48 | 0.05 | 40 | 1012.7 |
| 20260508131534 | 20 | 247 | 3.2 | 8.0 | 0.00 | 0.48 | 0.05 | 41 | 1013.1 |
| 20260508130034 | 20 | 186 | 6.4 | 16.1 | 0.00 | 0.48 | 0.05 | 41 | 1013.3 |
| 20260508124538 | 20 | 175 | 4.8 | 12.9 | 0.00 | 0.48 | 0.05 | 42 | 1013.3 |
| 20260508123039 | 20 | 318 | 3.2 | 6.4 | 0.00 | 0.48 | 0.05 | 43 | 1013.5 |
| 20260508121538 | 20 | 0 | 3.2 | 8.0 | 0.00 | 0.48 | 0.05 | 44 | 1013.8 |
| 20260508120040 | 20 | 78 | 0.0 | 4.8 | 0.00 | 0.48 | 0.05 | 47 | 1013.9 |
| 20260508114536 | 18 | 0 | 3.2 | 9.7 | 0.00 | 0.48 | 0.05 | 51 | 1014.1 |
| 20260508113107 | 17 | 297 | 3.2 | 14.5 | 0.00 | 0.48 | 0.05 | 54 | 1014.5 |
| 20260508111538 | 17 | 301 | 6.4 | 14.5 | 0.00 | 0.48 | 0.05 | 57 | 1014.7 |
| 20260508110038 | 17 | 307 | 6.4 | 16.1 | 0.00 | 0.48 | 0.05 | 60 | 1015.1 |